Time,TemperatureF,DewpointF,PressureIn,WindDirection,WindDirectionDegrees,WindSpeedMPH,WindSpeedGustMPH,Humidity,HourlyPrecipIn,Conditions,Clouds,dailyrainin,SoftwareType,DateUTC
2013-08-07 00:01:00,58.7,50.4,30.17,West,270,0.7,1.1,74,0.00,,,0.00,WUHU216HW,2013-08-07 04:01:00,
2013-08-07 00:06:00,58.7,50.4,30.17,West,270,0.0,0.7,74,0.00,,,0.00,WUHU216HW,2013-08-07 04:06:00,
2013-08-07 00:11:00,58.7,50.4,30.17,West,262,1.0,1.3,74,0.00,,,0.00,WUHU216HW,2013-08-07 04:11:00,
2013-08-07 00:16:00,58.7,50.8,30.17,WSW,248,0.0,1.3,75,0.00,,,0.00,WUHU216HW,2013-08-07 04:16:00,
2013-08-07 00:21:00,58.7,50.8,30.17,WSW,248,0.0,0.0,75,0.00,,,0.00,WUHU216HW,2013-08-07 04:21:00,
2013-08-07 00:26:00,58.7,50.8,30.17,WSW,248,0.0,0.0,75,0.00,,,0.00,WUHU216HW,2013-08-07 04:26:00,
2013-08-07 00:31:00,58.5,50.6,30.17,WSW,248,0.0,0.0,75,0.00,,,0.00,WUHU216HW,2013-08-07 04:31:00,
2013-08-07 00:36:00,58.3,50.0,30.17,WSW,248,0.0,0.7,74,0.00,,,0.00,WUHU216HW,2013-08-07 04:36:00,
2013-08-07 00:41:00,58.3,50.0,30.17,WSW,248,0.0,0.7,74,0.00,,,0.00,WUHU216HW,2013-08-07 04:41:00,
2013-08-07 00:46:00,58.1,49.9,30.18,WSW,248,0.0,0.0,74,0.00,,,0.00,WUHU216HW,2013-08-07 04:46:00,
2013-08-07 00:51:00,58.0,49.7,30.18,WSW,248,0.0,0.0,74,0.00,,,0.00,WUHU216HW,2013-08-07 04:51:00,
2013-08-07 00:56:00,58.0,49.7,30.18,WSW,248,0.0,0.0,74,0.00,,,0.00,WUHU216HW,2013-08-07 04:56:00,
2013-08-07 01:01:00,58.0,50.0,30.18,SW,225,1.3,1.6,75,0.00,,,0.00,WUHU216HW,2013-08-07 05:01:00,
2013-08-07 01:06:00,57.8,49.9,30.18,WSW,248,1.1,1.6,75,0.00,,,0.00,WUHU216HW,2013-08-07 05:06:00,
2013-08-07 01:11:00,57.4,49.5,30.18,WSW,248,0.0,1.3,75,0.00,,,0.00,WUHU216HW,2013-08-07 05:11:00,
2013-08-07 01:16:00,57.2,49.7,30.18,WSW,248,0.9,1.1,76,0.00,,,0.00,WUHU216HW,2013-08-07 05:16:00,
2013-08-07 01:21:00,57.2,49.7,30.18,WSW,248,1.0,1.1,76,0.00,,,0.00,WUHU216HW,2013-08-07 05:21:00,
2013-08-07 01:26:00,57.1,49.9,30.18,WSW,248,1.1,1.1,77,0.00,,,0.00,WUHU216HW,2013-08-07 05:26:00,
2013-08-07 01:31:00,56.7,49.5,30.17,WSW,248,0.0,1.1,77,0.00,,,0.00,WUHU216HW,2013-08-07 05:31:00,
2013-08-07 01:36:00,56.7,49.5,30.18,WSW,248,0.0,0.0,77,0.00,,,0.00,WUHU216HW,2013-08-07 05:36:00,
2013-08-07 01:41:00,56.5,49.3,30.18,WSW,248,0.0,0.0,77,0.00,,,0.00,WUHU216HW,2013-08-07 05:41:00,
2013-08-07 01:46:00,56.5,49.3,30.17,WSW,248,0.0,0.0,77,0.00,,,0.00,WUHU216HW,2013-08-07 05:46:00,
2013-08-07 01:51:00,56.5,49.3,30.17,WSW,248,1.1,1.1,77,0.00,,,0.00,WUHU216HW,2013-08-07 05:51:00,
2013-08-07 01:56:00,56.5,49.3,30.18,WSW,248,0.4,1.1,77,0.00,,,0.00,WUHU216HW,2013-08-07 05:56:00,
2013-08-07 02:01:00,56.5,49.3,30.18,WSW,248,1.1,1.1,77,0.00,,,0.00,WUHU216HW,2013-08-07 06:01:00,
2013-08-07 02:06:00,56.3,49.1,30.18,WSW,248,1.3,1.3,77,0.00,,,0.00,WUHU216HW,2013-08-07 06:06:00,
2013-08-07 02:11:00,56.2,49.0,30.18,WSW,248,0.6,1.3,77,0.00,,,0.00,WUHU216HW,2013-08-07 06:11:00,
2013-08-07 02:16:00,56.0,48.8,30.18,WSW,248,0.0,1.1,77,0.00,,,0.00,WUHU216HW,2013-08-07 06:16:00,
2013-08-07 02:21:00,55.8,48.6,30.18,WSW,248,0.7,0.9,77,0.00,,,0.00,WUHU216HW,2013-08-07 06:21:00,
2013-08-07 02:26:00,55.8,48.6,30.18,WSW,248,1.1,2.5,77,0.00,,,0.00,WUHU216HW,2013-08-07 06:26:00,
2013-08-07 02:31:00,55.8,48.6,30.18,WSW,248,1.1,2.5,77,0.00,,,0.00,WUHU216HW,2013-08-07 06:31:00,
2013-08-07 02:36:00,55.8,49.0,30.18,WSW,248,1.2,1.3,78,0.00,,,0.00,WUHU216HW,2013-08-07 06:36:00,
2013-08-07 02:41:00,55.6,48.8,30.18,WNW,293,0.6,1.3,78,0.00,,,0.00,WUHU216HW,2013-08-07 06:41:00,
2013-08-07 02:46:00,55.4,49.0,30.18,WSW,248,1.1,1.3,79,0.00,,,0.00,WUHU216HW,2013-08-07 06:46:00,
2013-08-07 02:51:00,55.3,48.8,30.18,WSW,248,0.9,2.5,79,0.00,,,0.00,WUHU216HW,2013-08-07 06:51:00,
2013-08-07 02:56:00,54.9,48.2,30.18,WSW,248,0.6,2.5,78,0.00,,,0.00,WUHU216HW,2013-08-07 06:56:00,
2013-08-07 03:01:00,54.7,48.0,30.18,West,265,1.6,1.8,78,0.00,,,0.00,WUHU216HW,2013-08-07 07:01:00,
2013-08-07 03:06:00,54.7,48.0,30.19,WSW,248,1.2,1.8,78,0.00,,,0.00,WUHU216HW,2013-08-07 07:06:00,
2013-08-07 03:11:00,54.9,48.2,30.19,WSW,248,1.3,1.3,78,0.00,,,0.00,WUHU216HW,2013-08-07 07:11:00,
2013-08-07 03:16:00,54.9,48.2,30.19,SW,225,1.8,2.0,78,0.00,,,0.00,WUHU216HW,2013-08-07 07:16:00,
2013-08-07 03:21:00,54.7,48.0,30.19,WSW,248,1.1,2.0,78,0.00,,,0.00,WUHU216HW,2013-08-07 07:21:00,
2013-08-07 03:26:00,54.7,48.0,30.19,WSW,248,1.3,1.3,78,0.00,,,0.00,WUHU216HW,2013-08-07 07:26:00,
2013-08-07 03:31:00,54.5,47.8,30.19,SW,225,1.1,1.3,78,0.00,,,0.00,WUHU216HW,2013-08-07 07:31:00,
2013-08-07 03:36:00,54.5,47.8,30.19,SW,225,0.7,1.3,78,0.00,,,0.00,WUHU216HW,2013-08-07 07:36:00,
2013-08-07 03:41:00,54.5,47.8,30.19,SW,225,1.1,1.1,78,0.00,,,0.00,WUHU216HW,2013-08-07 07:41:00,
2013-08-07 03:46:00,54.5,48.2,30.19,SW,225,0.0,1.1,79,0.00,,,0.00,WUHU216HW,2013-08-07 07:46:00,
2013-08-07 03:51:00,54.5,48.2,30.19,West,270,1.3,1.3,79,0.00,,,0.00,WUHU216HW,2013-08-07 07:51:00,
2013-08-07 03:56:00,54.5,48.2,30.19,WSW,248,1.1,1.6,79,0.00,,,0.00,WUHU216HW,2013-08-07 07:56:00,
2013-08-07 04:01:00,54.5,48.2,30.19,WSW,248,0.4,1.8,79,0.00,,,0.00,WUHU216HW,2013-08-07 08:01:00,
2013-08-07 04:06:00,54.7,48.3,30.19,WSW,248,2.5,2.5,79,0.00,,,0.00,WUHU216HW,2013-08-07 08:06:00,
2013-08-07 04:11:00,54.5,48.2,30.19,West,264,0.8,2.5,79,0.00,,,0.00,WUHU216HW,2013-08-07 08:11:00,
2013-08-07 04:16:00,54.5,48.2,30.19,WSW,248,0.9,1.6,79,0.00,,,0.00,WUHU216HW,2013-08-07 08:16:00,
2013-08-07 04:21:00,54.7,48.3,30.19,WSW,248,0.9,1.8,79,0.00,,,0.00,WUHU216HW,2013-08-07 08:21:00,
2013-08-07 04:26:00,54.7,48.3,30.19,West,270,0.4,1.8,79,0.00,,,0.00,WUHU216HW,2013-08-07 08:26:00,
2013-08-07 04:31:00,54.7,48.3,30.18,West,270,0.4,0.9,79,0.00,,,0.00,WUHU216HW,2013-08-07 08:31:00,
2013-08-07 04:36:00,54.7,48.3,30.19,West,270,0.9,1.1,79,0.00,,,0.00,WUHU216HW,2013-08-07 08:36:00,
2013-08-07 04:41:00,54.9,48.5,30.19,West,270,0.0,1.1,79,0.00,,,0.00,WUHU216HW,2013-08-07 08:41:00,
2013-08-07 04:46:00,55.1,48.7,30.18,West,270,0.0,0.2,79,0.00,,,0.00,WUHU216HW,2013-08-07 08:46:00,
2013-08-07 04:51:00,55.1,48.7,30.19,West,270,0.0,0.0,79,0.00,,,0.00,WUHU216HW,2013-08-07 08:51:00,
2013-08-07 04:56:00,55.1,48.7,30.19,West,270,0.0,0.0,79,0.00,,,0.00,WUHU216HW,2013-08-07 08:56:00,
2013-08-07 05:01:00,54.9,48.9,30.19,West,270,0.0,0.4,80,0.00,,,0.00,WUHU216HW,2013-08-07 09:01:00,
2013-08-07 05:06:00,54.7,48.3,30.19,West,270,0.0,0.4,79,0.00,,,0.00,WUHU216HW,2013-08-07 09:06:00,
2013-08-07 05:11:00,54.7,48.3,30.19,West,270,0.0,0.0,79,0.00,,,0.00,WUHU216HW,2013-08-07 09:11:00,
2013-08-07 05:16:00,54.9,48.5,30.19,West,270,0.0,0.0,79,0.00,,,0.00,WUHU216HW,2013-08-07 09:16:00,
2013-08-07 05:21:00,54.9,48.5,30.19,West,270,0.0,0.0,79,0.00,,,0.00,WUHU216HW,2013-08-07 09:21:00,
2013-08-07 05:26:00,55.1,48.7,30.19,West,270,0.0,0.0,79,0.00,,,0.00,WUHU216HW,2013-08-07 09:26:00,
2013-08-07 05:31:00,55.1,49.0,30.19,West,270,0.0,0.0,80,0.00,,,0.00,WUHU216HW,2013-08-07 09:31:00,
2013-08-07 05:36:00,55.4,49.3,30.19,West,270,0.0,0.0,80,0.00,,,0.00,WUHU216HW,2013-08-07 09:36:00,
2013-08-07 05:41:00,55.4,49.3,30.19,West,270,0.0,0.0,80,0.00,,,0.00,WUHU216HW,2013-08-07 09:41:00,
2013-08-07 05:46:00,55.6,49.9,30.19,West,270,0.0,0.0,81,0.00,,,0.00,WUHU216HW,2013-08-07 09:46:00,
2013-08-07 05:51:00,55.4,49.3,30.19,West,270,0.0,0.0,80,0.00,,,0.00,WUHU216HW,2013-08-07 09:51:00,
2013-08-07 05:56:00,55.4,49.3,30.19,West,270,0.0,0.0,80,0.00,,,0.00,WUHU216HW,2013-08-07 09:56:00,
2013-08-07 06:01:00,55.4,49.3,30.19,West,270,0.0,0.0,80,0.00,,,0.00,WUHU216HW,2013-08-07 10:01:00,
2013-08-07 06:06:00,55.4,49.3,30.19,West,270,0.0,0.0,80,0.00,,,0.00,WUHU216HW,2013-08-07 10:06:00,
2013-08-07 06:11:00,55.4,49.3,30.19,West,270,0.0,0.4,80,0.00,,,0.00,WUHU216HW,2013-08-07 10:11:00,
2013-08-07 06:16:00,55.4,49.3,30.19,West,270,0.0,0.4,80,0.00,,,0.00,WUHU216HW,2013-08-07 10:16:00,
2013-08-07 06:21:00,55.4,49.3,30.19,West,270,0.0,0.0,80,0.00,,,0.00,WUHU216HW,2013-08-07 10:21:00,
2013-08-07 06:26:00,55.6,49.9,30.18,West,270,0.0,0.0,81,0.00,,,0.00,WUHU216HW,2013-08-07 10:26:00,
2013-08-07 06:31:00,55.6,49.9,30.18,West,270,0.0,0.0,81,0.00,,,0.00,WUHU216HW,2013-08-07 10:31:00,
2013-08-07 06:36:00,55.8,50.1,30.18,West,270,0.0,0.0,81,0.00,,,0.00,WUHU216HW,2013-08-07 10:36:00,
2013-08-07 06:41:00,55.8,50.1,30.19,West,270,0.0,0.0,81,0.00,,,0.00,WUHU216HW,2013-08-07 10:41:00,
2013-08-07 06:46:00,55.8,50.1,30.19,West,270,0.0,0.0,81,0.00,,,0.00,WUHU216HW,2013-08-07 10:46:00,
2013-08-07 06:51:00,55.8,50.1,30.19,West,270,0.0,0.0,81,0.00,,,0.00,WUHU216HW,2013-08-07 10:51:00,
2013-08-07 06:56:00,55.6,49.9,30.19,West,270,0.0,0.0,81,0.00,,,0.00,WUHU216HW,2013-08-07 10:56:00,
2013-08-07 07:01:00,55.6,49.9,30.19,West,270,0.0,0.0,81,0.00,,,0.00,WUHU216HW,2013-08-07 11:01:00,
2013-08-07 07:06:00,55.6,49.9,30.19,West,270,0.0,0.0,81,0.00,,,0.00,WUHU216HW,2013-08-07 11:06:00,
2013-08-07 07:11:00,55.8,50.1,30.19,West,270,0.0,0.0,81,0.00,,,0.00,WUHU216HW,2013-08-07 11:11:00,
2013-08-07 07:16:00,55.8,50.1,30.19,West,270,0.0,0.0,81,0.00,,,0.00,WUHU216HW,2013-08-07 11:16:00,
2013-08-07 07:21:00,56.0,50.2,30.20,West,270,0.0,0.0,81,0.00,,,0.00,WUHU216HW,2013-08-07 11:21:00,
2013-08-07 07:26:00,56.2,50.4,30.20,West,270,0.0,0.0,81,0.00,,,0.00,WUHU216HW,2013-08-07 11:26:00,
2013-08-07 07:31:00,56.2,50.4,30.20,West,270,0.0,0.0,81,0.00,,,0.00,WUHU216HW,2013-08-07 11:31:00,
2013-08-07 07:36:00,56.3,50.6,30.20,West,270,0.4,0.4,81,0.00,,,0.00,WUHU216HW,2013-08-07 11:36:00,
2013-08-07 07:41:00,56.5,50.8,30.20,West,270,0.7,0.7,81,0.00,,,0.00,WUHU216HW,2013-08-07 11:41:00,
2013-08-07 07:46:00,56.7,51.2,30.20,NW,315,0.2,1.1,82,0.00,,,0.00,WUHU216HW,2013-08-07 11:46:00,
2013-08-07 07:51:00,56.9,51.1,30.20,NW,315,0.3,1.1,81,0.00,,,0.00,WUHU216HW,2013-08-07 11:51:00,
2013-08-07 07:56:00,57.1,51.3,30.20,NW,315,0.0,0.7,81,0.00,,,0.00,WUHU216HW,2013-08-07 11:56:00,
2013-08-07 08:01:00,57.2,51.5,30.20,NW,315,0.0,0.7,81,0.00,,,0.00,WUHU216HW,2013-08-07 12:01:00,
2013-08-07 08:06:00,57.2,51.5,30.20,NW,315,0.0,0.0,81,0.00,,,0.00,WUHU216HW,2013-08-07 12:06:00,
2013-08-07 08:11:00,57.2,51.5,30.20,NW,315,0.7,0.7,81,0.00,,,0.00,WUHU216HW,2013-08-07 12:11:00,
2013-08-07 08:16:00,57.2,51.5,30.20,NW,315,0.0,0.7,81,0.00,,,0.00,WUHU216HW,2013-08-07 12:16:00,
2013-08-07 08:21:00,57.4,51.7,30.20,NW,315,0.4,0.4,81,0.00,,,0.00,WUHU216HW,2013-08-07 12:21:00,
2013-08-07 08:26:00,57.4,51.7,30.20,NW,315,0.0,0.4,81,0.00,,,0.00,WUHU216HW,2013-08-07 12:26:00,
2013-08-07 08:31:00,57.6,51.9,30.20,NW,315,0.0,0.4,81,0.00,,,0.00,WUHU216HW,2013-08-07 12:31:00,
2013-08-07 08:36:00,57.4,51.7,30.20,NW,315,0.4,1.1,81,0.00,,,0.00,WUHU216HW,2013-08-07 12:36:00,
2013-08-07 08:41:00,57.6,51.9,30.20,NW,315,0.0,1.1,81,0.00,,,0.00,WUHU216HW,2013-08-07 12:41:00,
2013-08-07 08:46:00,57.6,51.9,30.20,NW,315,0.0,0.0,81,0.00,,,0.00,WUHU216HW,2013-08-07 12:46:00,
2013-08-07 08:51:00,57.8,52.0,30.20,NW,315,0.0,0.0,81,0.00,,,0.00,WUHU216HW,2013-08-07 12:51:00,
2013-08-07 08:56:00,58.0,52.2,30.20,North,0,1.1,1.6,81,0.00,,,0.00,WUHU216HW,2013-08-07 12:56:00,
2013-08-07 09:01:00,58.1,52.4,30.20,NNE,23,1.0,1.8,81,0.00,,,0.00,WUHU216HW,2013-08-07 13:01:00,
2013-08-07 09:06:00,58.1,52.4,30.20,NNE,23,0.6,1.8,81,0.00,,,0.00,WUHU216HW,2013-08-07 13:06:00,
2013-08-07 09:11:00,58.3,52.6,30.20,NNE,23,1.1,1.1,81,0.00,,,0.00,WUHU216HW,2013-08-07 13:11:00,
2013-08-07 09:16:00,58.3,52.6,30.20,North,0,0.0,1.1,81,0.00,,,0.00,WUHU216HW,2013-08-07 13:16:00,
2013-08-07 09:21:00,58.5,52.8,30.20,North,0,0.2,1.1,81,0.00,,,0.00,WUHU216HW,2013-08-07 13:21:00,
2013-08-07 09:26:00,58.9,53.1,30.20,North,0,1.0,1.1,81,0.00,,,0.00,WUHU216HW,2013-08-07 13:26:00,
2013-08-07 09:31:00,59.0,53.3,30.19,North,0,1.1,1.1,81,0.00,,,0.00,WUHU216HW,2013-08-07 13:31:00,
2013-08-07 09:36:00,59.4,53.7,30.19,North,0,0.0,1.1,81,0.00,,,0.00,WUHU216HW,2013-08-07 13:36:00,
2013-08-07 09:41:00,59.8,54.0,30.20,North,0,1.3,1.3,81,0.00,,,0.00,WUHU216HW,2013-08-07 13:41:00,
2013-08-07 09:46:00,60.1,54.4,30.19,North,0,0.6,1.3,81,0.00,,,0.00,WUHU216HW,2013-08-07 13:46:00,
2013-08-07 09:51:00,60.3,54.2,30.19,North,0,0.0,0.9,80,0.00,,,0.00,WUHU216HW,2013-08-07 13:51:00,
2013-08-07 09:56:00,60.5,54.4,30.19,North,0,0.6,0.9,80,0.00,,,0.00,WUHU216HW,2013-08-07 13:56:00,
2013-08-07 10:01:00,60.8,54.7,30.19,North,0,0.9,1.1,80,0.00,,,0.00,WUHU216HW,2013-08-07 14:01:00,
2013-08-07 10:06:00,61.0,54.9,30.19,North,0,0.6,1.1,80,0.00,,,0.00,WUHU216HW,2013-08-07 14:06:00,
2013-08-07 10:11:00,61.2,54.7,30.19,ENE,68,0.2,1.1,79,0.00,,,0.00,WUHU216HW,2013-08-07 14:11:00,
2013-08-07 10:16:00,61.7,55.2,30.19,NE,45,1.5,1.8,79,0.00,,,0.00,WUHU216HW,2013-08-07 14:16:00,
2013-08-07 10:21:00,62.3,55.6,30.19,ESE,113,0.4,1.8,79,0.00,,,0.00,WUHU216HW,2013-08-07 14:21:00,
2013-08-07 10:26:00,63.0,56.3,30.19,SE,135,0.7,1.8,79,0.00,,,0.00,WUHU216HW,2013-08-07 14:26:00,
2013-08-07 10:31:00,63.2,56.5,30.19,SE,135,0.8,1.8,79,0.00,,,0.00,WUHU216HW,2013-08-07 14:31:00,
2013-08-07 10:36:00,63.7,57.1,30.19,NW,315,0.3,1.6,79,0.00,,,0.00,WUHU216HW,2013-08-07 14:36:00,
2013-08-07 10:41:00,64.4,57.8,30.19,North,0,1.1,1.3,79,0.00,,,0.00,WUHU216HW,2013-08-07 14:41:00,
2013-08-07 10:46:00,64.8,58.2,30.18,NNE,23,0.4,1.3,79,0.00,,,0.00,WUHU216HW,2013-08-07 14:46:00,
2013-08-07 10:51:00,65.5,58.5,30.19,NE,45,0.6,1.1,78,0.00,,,0.00,WUHU216HW,2013-08-07 14:51:00,
2013-08-07 10:56:00,66.2,58.8,30.18,SE,135,0.4,2.2,77,0.00,,,0.00,WUHU216HW,2013-08-07 14:56:00,
2013-08-07 11:01:00,67.3,59.9,30.18,SSE,156,0.8,2.2,77,0.00,,,0.00,WUHU216HW,2013-08-07 15:01:00,
2013-08-07 11:06:00,68.0,60.2,30.18,SSW,197,1.0,1.3,76,0.00,,,0.00,WUHU216HW,2013-08-07 15:06:00,
2013-08-07 11:11:00,68.8,60.5,30.18,South,180,3.4,3.4,75,0.00,,,0.00,WUHU216HW,2013-08-07 15:11:00,
2013-08-07 11:16:00,68.9,59.1,30.18,SSE,158,1.8,3.4,71,0.00,,,0.00,WUHU216HW,2013-08-07 15:16:00,
2013-08-07 11:21:00,68.9,59.1,30.18,SSE,158,1.8,2.5,71,0.00,,,0.00,WUHU216HW,2013-08-07 15:21:00,
2013-08-07 11:26:00,68.8,58.6,30.18,South,180,1.5,2.5,70,0.00,,,0.00,WUHU216HW,2013-08-07 15:26:00,
2013-08-07 11:31:00,68.4,58.7,30.18,SSW,203,1.6,2.5,71,0.00,,,0.00,WUHU216HW,2013-08-07 15:31:00,
2013-08-07 11:36:00,68.8,59.4,30.18,South,180,0.4,1.8,72,0.00,,,0.00,WUHU216HW,2013-08-07 15:36:00,
2013-08-07 11:41:00,68.9,60.0,30.18,South,180,1.1,1.1,73,0.00,,,0.00,WUHU216HW,2013-08-07 15:41:00,
2013-08-07 11:46:00,69.5,60.8,30.17,SSE,158,1.3,1.8,74,0.00,,,0.00,WUHU216HW,2013-08-07 15:46:00,
2013-08-07 11:51:00,69.1,59.0,30.18,South,180,1.1,2.0,70,0.00,,,0.00,WUHU216HW,2013-08-07 15:51:00,
2013-08-07 11:56:00,69.5,60.0,30.17,SSE,158,1.2,2.0,72,0.00,,,0.00,WUHU216HW,2013-08-07 15:56:00,
2013-08-07 12:01:00,70.6,60.3,30.17,WSW,253,2.4,3.1,70,0.00,,,0.00,WUHU216HW,2013-08-07 16:01:00,
2013-08-07 12:06:00,71.5,61.2,30.17,ESE,113,0.2,3.1,70,0.00,,,0.00,WUHU216HW,2013-08-07 16:06:00,
2013-08-07 12:11:00,72.2,61.9,30.18,SE,135,0.9,1.6,70,0.00,,,0.00,WUHU216HW,2013-08-07 16:11:00,
2013-08-07 12:16:00,72.7,61.6,30.17,SSE,158,1.8,1.8,68,0.00,,,0.00,WUHU216HW,2013-08-07 16:16:00,
2013-08-07 12:21:00,73.3,61.2,30.17,South,180,1.8,1.8,66,0.00,,,0.00,WUHU216HW,2013-08-07 16:21:00,
2013-08-07 12:26:00,73.8,60.0,30.17,South,180,1.1,2.0,62,0.00,,,0.00,WUHU216HW,2013-08-07 16:26:00,
2013-08-07 12:31:00,73.8,60.9,30.17,SSW,203,1.3,2.2,64,0.00,,,0.00,WUHU216HW,2013-08-07 16:31:00,
2013-08-07 12:36:00,73.6,60.2,30.17,SSE,158,1.8,2.2,63,0.00,,,0.00,WUHU216HW,2013-08-07 16:36:00,
2013-08-07 12:41:00,74.3,62.2,30.17,SSE,158,1.5,1.8,66,0.00,,,0.00,WUHU216HW,2013-08-07 16:41:00,
2013-08-07 12:46:00,74.7,60.9,30.17,SSE,158,2.2,2.5,62,0.00,,,0.00,WUHU216HW,2013-08-07 16:46:00,
2013-08-07 12:51:00,74.7,59.4,30.17,SW,225,1.1,2.5,59,0.00,,,0.00,WUHU216HW,2013-08-07 16:51:00,
2013-08-07 12:56:00,74.7,60.4,30.17,SSE,158,1.6,1.8,61,0.00,,,0.00,WUHU216HW,2013-08-07 16:56:00,
2013-08-07 13:01:00,75.2,60.9,30.16,SE,141,1.5,2.5,61,0.00,,,0.00,WUHU216HW,2013-08-07 17:01:00,
2013-08-07 13:06:00,75.6,60.9,30.16,South,180,1.0,2.5,60,0.00,,,0.00,WUHU216HW,2013-08-07 17:06:00,
2013-08-07 13:11:00,75.6,60.9,30.17,SW,225,2.0,2.2,60,0.00,,,0.00,WUHU216HW,2013-08-07 17:11:00,
2013-08-07 13:16:00,76.0,59.6,30.16,SSW,203,1.3,2.2,57,0.00,,,0.00,WUHU216HW,2013-08-07 17:16:00,
2013-08-07 13:21:00,76.0,60.7,30.16,WNW,293,1.8,2.2,59,0.00,,,0.00,WUHU216HW,2013-08-07 17:21:00,
2013-08-07 13:26:00,76.1,60.3,30.16,South,189,2.2,2.5,58,0.00,,,0.00,WUHU216HW,2013-08-07 17:26:00,
2013-08-07 13:31:00,76.1,59.3,30.16,SSW,203,2.5,2.9,56,0.00,,,0.00,WUHU216HW,2013-08-07 17:31:00,
2013-08-07 13:36:00,76.0,59.1,30.16,SW,225,1.6,2.9,56,0.00,,,0.00,WUHU216HW,2013-08-07 17:36:00,
2013-08-07 13:41:00,75.4,59.7,30.16,SSW,203,1.8,2.5,58,0.00,,,0.00,WUHU216HW,2013-08-07 17:41:00,
2013-08-07 13:46:00,75.8,59.0,30.17,SW,225,1.3,2.0,56,0.00,,,0.00,WUHU216HW,2013-08-07 17:46:00,
2013-08-07 13:51:00,75.2,57.4,30.16,SE,144,2.3,2.9,54,0.00,,,0.00,WUHU216HW,2013-08-07 17:51:00,
2013-08-07 13:56:00,74.0,57.3,30.17,South,180,3.4,3.4,56,0.00,,,0.00,WUHU216HW,2013-08-07 17:56:00,
2013-08-07 14:01:00,72.9,56.7,30.16,South,180,3.4,3.4,57,0.00,,,0.00,WUHU216HW,2013-08-07 18:01:00,
2013-08-07 14:06:00,73.3,59.0,30.16,SSE,150,1.3,3.4,61,0.00,,,0.00,WUHU216HW,2013-08-07 18:06:00,
2013-08-07 14:11:00,74.5,59.8,30.16,SSE,164,1.5,2.5,60,0.00,,,0.00,WUHU216HW,2013-08-07 18:11:00,
2013-08-07 14:16:00,75.4,58.6,30.16,SSW,213,1.9,3.8,56,0.00,,,0.00,WUHU216HW,2013-08-07 18:16:00,
2013-08-07 14:21:00,75.8,59.0,30.16,SSW,203,1.8,3.8,56,0.00,,,0.00,WUHU216HW,2013-08-07 18:21:00,
2013-08-07 14:26:00,75.4,56.6,30.17,SSW,203,1.8,2.7,52,0.00,,,0.00,WUHU216HW,2013-08-07 18:26:00,
2013-08-07 14:31:00,74.3,57.1,30.16,SW,217,3.4,4.3,55,0.00,,,0.00,WUHU216HW,2013-08-07 18:31:00,
2013-08-07 14:36:00,73.8,57.5,30.16,SW,225,1.6,4.3,57,0.00,,,0.00,WUHU216HW,2013-08-07 18:36:00,
2013-08-07 14:41:00,73.6,57.9,30.16,SSE,158,2.5,2.7,58,0.00,,,0.00,WUHU216HW,2013-08-07 18:41:00,
2013-08-07 14:46:00,74.0,57.3,30.16,South,180,2.7,2.7,56,0.00,,,0.00,WUHU216HW,2013-08-07 18:46:00,
2013-08-07 14:51:00,73.4,56.7,30.16,SSW,201,1.2,2.7,56,0.00,,,0.00,WUHU216HW,2013-08-07 18:51:00,
2013-08-07 14:56:00,72.9,55.2,30.16,SSW,203,2.2,2.7,54,0.00,,,0.00,WUHU216HW,2013-08-07 18:56:00,
2013-08-07 15:01:00,72.2,56.1,30.16,South,186,2.1,2.5,57,0.00,,,0.00,WUHU216HW,2013-08-07 19:01:00,
2013-08-07 15:06:00,72.2,56.1,30.16,SSE,166,2.3,3.1,57,0.00,,,0.00,WUHU216HW,2013-08-07 19:06:00,
2013-08-07 15:11:00,72.4,55.7,30.16,South,180,2.7,3.1,56,0.00,,,0.00,WUHU216HW,2013-08-07 19:11:00,
2013-08-07 15:16:00,72.4,55.7,30.15,South,189,2.2,2.7,56,0.00,,,0.00,WUHU216HW,2013-08-07 19:16:00,
2013-08-07 15:21:00,72.2,56.5,30.15,SSW,203,2.5,2.5,58,0.00,,,0.00,WUHU216HW,2013-08-07 19:21:00,
2013-08-07 15:26:00,72.4,56.2,30.15,SW,225,2.1,2.9,57,0.00,,,0.00,WUHU216HW,2013-08-07 19:26:00,
2013-08-07 15:31:00,72.4,56.7,30.15,South,180,2.0,2.9,58,0.00,,,0.00,WUHU216HW,2013-08-07 19:31:00,
2013-08-07 15:36:00,72.0,56.3,30.15,South,180,1.6,2.7,58,0.00,,,0.00,WUHU216HW,2013-08-07 19:36:00,
2013-08-07 15:41:00,71.8,57.7,30.15,South,180,1.6,2.0,61,0.00,,,0.00,WUHU216HW,2013-08-07 19:41:00,
2013-08-07 15:46:00,72.0,57.8,30.14,South,180,2.7,2.7,61,0.00,,,0.00,WUHU216HW,2013-08-07 19:46:00,
2013-08-07 15:51:00,72.2,57.5,30.14,SSW,213,1.7,2.7,60,0.00,,,0.00,WUHU216HW,2013-08-07 19:51:00,
2013-08-07 15:56:00,72.4,58.6,30.14,SSW,203,1.1,1.8,62,0.00,,,0.00,WUHU216HW,2013-08-07 19:56:00,
2013-08-07 16:01:00,72.2,57.5,30.14,SSW,199,1.8,2.2,60,0.00,,,0.00,WUHU216HW,2013-08-07 20:01:00,
2013-08-07 16:06:00,72.0,57.4,30.14,South,180,1.9,2.2,60,0.00,,,0.00,WUHU216HW,2013-08-07 20:06:00,
2013-08-07 16:11:00,71.8,57.7,30.14,South,180,1.8,2.5,61,0.00,,,0.00,WUHU216HW,2013-08-07 20:11:00,
2013-08-07 16:16:00,71.8,58.5,30.14,South,180,1.9,2.5,63,0.00,,,0.00,WUHU216HW,2013-08-07 20:16:00,
2013-08-07 16:21:00,72.4,58.1,30.14,SE,135,1.6,2.9,61,0.00,,,0.00,WUHU216HW,2013-08-07 20:21:00,
2013-08-07 16:26:00,72.7,58.1,30.13,South,180,2.9,2.9,60,0.00,,,0.00,WUHU216HW,2013-08-07 20:26:00,
2013-08-07 16:31:00,72.4,57.7,30.13,South,180,1.8,2.9,60,0.00,,,0.00,WUHU216HW,2013-08-07 20:31:00,
2013-08-07 16:36:00,71.8,57.3,30.14,SSW,192,2.0,2.5,60,0.00,,,0.00,WUHU216HW,2013-08-07 20:36:00,
2013-08-07 16:41:00,71.3,57.2,30.14,South,180,2.5,3.1,61,0.00,,,0.00,WUHU216HW,2013-08-07 20:41:00,
2013-08-07 16:46:00,71.3,57.6,30.14,South,180,1.0,3.1,62,0.00,,,0.00,WUHU216HW,2013-08-07 20:46:00,
2013-08-07 16:51:00,71.5,57.3,30.13,SSE,168,2.1,2.2,61,0.00,,,0.00,WUHU216HW,2013-08-07 20:51:00,
2013-08-07 16:56:00,71.6,58.0,30.13,South,180,1.8,2.2,62,0.00,,,0.00,WUHU216HW,2013-08-07 20:56:00,
2013-08-07 17:01:00,71.5,57.8,30.13,SSE,164,1.4,2.5,62,0.00,,,0.00,WUHU216HW,2013-08-07 21:01:00,
2013-08-07 17:06:00,71.3,56.7,30.13,SSW,203,1.5,2.5,60,0.00,,,0.00,WUHU216HW,2013-08-07 21:06:00,
2013-08-07 17:11:00,71.6,57.5,30.13,SSW,203,1.7,2.5,61,0.00,,,0.00,WUHU216HW,2013-08-07 21:11:00,
2013-08-07 17:16:00,71.3,57.2,30.13,South,180,2.0,2.5,61,0.00,,,0.00,WUHU216HW,2013-08-07 21:16:00,
2013-08-07 17:21:00,70.9,56.4,30.12,South,180,3.1,3.1,60,0.00,,,0.00,WUHU216HW,2013-08-07 21:21:00,
2013-08-07 17:26:00,70.7,55.7,30.12,South,173,1.9,3.1,59,0.00,,,0.00,WUHU216HW,2013-08-07 21:26:00,
2013-08-07 17:31:00,70.9,56.4,30.12,SSE,162,1.0,2.9,60,0.00,,,0.00,WUHU216HW,2013-08-07 21:31:00,
2013-08-07 17:36:00,71.1,57.4,30.12,South,190,1.8,2.0,62,0.00,,,0.00,WUHU216HW,2013-08-07 21:36:00,
2013-08-07 17:41:00,71.3,57.2,30.12,South,191,1.7,2.5,61,0.00,,,0.00,WUHU216HW,2013-08-07 21:41:00,
2013-08-07 17:46:00,71.3,57.2,30.12,South,180,1.8,2.5,61,0.00,,,0.00,WUHU216HW,2013-08-07 21:46:00,
2013-08-07 17:51:00,71.1,57.0,30.12,SSW,203,1.3,2.5,61,0.00,,,0.00,WUHU216HW,2013-08-07 21:51:00,
2013-08-07 17:56:00,70.9,55.9,30.12,SSE,158,2.2,2.5,59,0.00,,,0.00,WUHU216HW,2013-08-07 21:56:00,
2013-08-07 18:01:00,70.7,56.7,30.12,South,180,2.5,2.5,61,0.00,,,0.00,WUHU216HW,2013-08-07 22:01:00,
2013-08-07 18:06:00,70.6,56.1,30.12,South,180,2.5,2.7,60,0.00,,,0.00,WUHU216HW,2013-08-07 22:06:00,
2013-08-07 18:11:00,70.4,55.5,30.12,SSE,158,2.7,2.7,59,0.00,,,0.00,WUHU216HW,2013-08-07 22:11:00,
2013-08-07 18:16:00,70.6,56.1,30.12,SSW,203,2.0,2.7,60,0.00,,,0.00,WUHU216HW,2013-08-07 22:16:00,
2013-08-07 18:21:00,70.2,55.8,30.12,SSW,197,1.6,2.2,60,0.00,,,0.00,WUHU216HW,2013-08-07 22:21:00,
2013-08-07 18:26:00,70.2,55.8,30.11,SSW,194,2.3,2.7,60,0.00,,,0.00,WUHU216HW,2013-08-07 22:26:00,
2013-08-07 18:31:00,70.0,56.0,30.11,SW,225,1.6,2.7,61,0.00,,,0.00,WUHU216HW,2013-08-07 22:31:00,
2013-08-07 18:36:00,69.8,56.3,30.11,South,180,1.8,2.5,62,0.00,,,0.00,WUHU216HW,2013-08-07 22:36:00,
2013-08-07 18:41:00,69.7,56.1,30.12,SSW,203,1.3,2.0,62,0.00,,,0.00,WUHU216HW,2013-08-07 22:41:00,
2013-08-07 18:46:00,69.5,56.4,30.12,SW,225,1.1,1.8,63,0.00,,,0.00,WUHU216HW,2013-08-07 22:46:00,
2013-08-07 18:51:00,69.5,56.4,30.12,SE,135,1.3,1.8,63,0.00,,,0.00,WUHU216HW,2013-08-07 22:51:00,
2013-08-07 18:56:00,69.3,56.2,30.12,SSW,203,2.7,2.7,63,0.00,,,0.00,WUHU216HW,2013-08-07 22:56:00,
2013-08-07 19:01:00,69.1,56.0,30.12,SSW,203,1.3,2.7,63,0.00,,,0.00,WUHU216HW,2013-08-07 23:01:00,
2013-08-07 19:06:00,68.8,55.6,30.12,South,180,2.0,2.0,63,0.00,,,0.00,WUHU216HW,2013-08-07 23:06:00,
2013-08-07 19:11:00,68.8,56.1,30.11,South,180,2.0,2.0,64,0.00,,,0.00,WUHU216HW,2013-08-07 23:11:00,
2013-08-07 19:16:00,68.6,56.4,30.11,SSW,203,1.8,2.0,65,0.00,,,0.00,WUHU216HW,2013-08-07 23:16:00,
2013-08-07 19:21:00,68.4,56.2,30.11,SSW,203,1.5,1.8,65,0.00,,,0.00,WUHU216HW,2013-08-07 23:21:00,
2013-08-07 19:26:00,68.4,55.7,30.11,South,180,2.5,2.5,64,0.00,,,0.00,WUHU216HW,2013-08-07 23:26:00,
2013-08-07 19:31:00,68.4,55.7,30.11,SSW,203,1.3,2.5,64,0.00,,,0.00,WUHU216HW,2013-08-07 23:31:00,
2013-08-07 19:36:00,68.4,56.2,30.11,SSW,203,1.1,2.2,65,0.00,,,0.00,WUHU216HW,2013-08-07 23:36:00,
2013-08-07 19:41:00,68.2,56.0,30.11,SSW,203,1.6,1.8,65,0.00,,,0.00,WUHU216HW,2013-08-07 23:41:00,
2013-08-07 19:46:00,68.0,55.8,30.11,South,180,1.8,2.2,65,0.00,,,0.00,WUHU216HW,2013-08-07 23:46:00,
2013-08-07 19:51:00,67.9,55.6,30.10,South,170,2.0,2.2,65,0.00,,,0.00,WUHU216HW,2013-08-07 23:51:00,
2013-08-07 19:56:00,67.7,55.4,30.10,South,180,2.5,2.5,65,0.00,,,0.00,WUHU216HW,2013-08-07 23:56:00,
2013-08-07 20:01:00,67.5,55.7,30.11,SSW,203,1.8,2.5,66,0.00,,,0.00,WUHU216HW,2013-08-08 00:01:00,
2013-08-07 20:06:00,67.3,55.5,30.11,South,188,1.5,2.5,66,0.00,,,0.00,WUHU216HW,2013-08-08 00:06:00,
2013-08-07 20:11:00,67.1,55.8,30.11,SSW,203,1.4,2.5,67,0.00,,,0.00,WUHU216HW,2013-08-08 00:11:00,
2013-08-07 20:16:00,67.0,55.6,30.12,SSW,209,1.3,2.0,67,0.00,,,0.00,WUHU216HW,2013-08-08 00:16:00,
2013-08-07 20:21:00,67.0,55.2,30.12,SSW,203,0.4,1.8,66,0.00,,,0.00,WUHU216HW,2013-08-08 00:21:00,
2013-08-07 20:26:00,67.1,55.8,30.12,SW,225,0.4,1.1,67,0.00,,,0.00,WUHU216HW,2013-08-08 00:26:00,
2013-08-07 20:31:00,67.0,55.6,30.12,South,180,1.1,1.8,67,0.00,,,0.00,WUHU216HW,2013-08-08 00:31:00,
2013-08-07 20:36:00,67.0,55.6,30.11,South,180,0.6,1.8,67,0.00,,,0.00,WUHU216HW,2013-08-08 00:36:00,
2013-08-07 20:41:00,66.8,55.4,30.11,South,180,0.0,1.6,67,0.00,,,0.00,WUHU216HW,2013-08-08 00:41:00,
2013-08-07 20:46:00,66.6,55.3,30.11,SSW,203,0.4,0.4,67,0.00,,,0.00,WUHU216HW,2013-08-08 00:46:00,
2013-08-07 20:51:00,66.6,55.7,30.12,SW,225,1.3,1.3,68,0.00,,,0.00,WUHU216HW,2013-08-08 00:51:00,
2013-08-07 20:56:00,66.6,55.7,30.12,SSW,203,0.2,1.6,68,0.00,,,0.00,WUHU216HW,2013-08-08 00:56:00,
2013-08-07 21:01:00,66.6,55.7,30.12,West,270,1.1,1.6,68,0.00,,,0.00,WUHU216HW,2013-08-08 01:01:00,
2013-08-07 21:06:00,66.4,55.9,30.12,West,270,1.8,1.8,69,0.00,,,0.00,WUHU216HW,2013-08-08 01:06:00,
2013-08-07 21:11:00,66.4,55.9,30.12,WSW,248,0.0,1.8,69,0.00,,,0.00,WUHU216HW,2013-08-08 01:11:00,
2013-08-07 21:16:00,66.4,55.5,30.12,WSW,248,0.4,0.4,68,0.00,,,0.00,WUHU216HW,2013-08-08 01:16:00,
2013-08-07 21:21:00,66.2,55.7,30.12,WSW,248,1.3,1.3,69,0.00,,,0.00,WUHU216HW,2013-08-08 01:21:00,
2013-08-07 21:26:00,66.2,55.7,30.12,WSW,248,0.4,1.3,69,0.00,,,0.00,WUHU216HW,2013-08-08 01:26:00,
2013-08-07 21:31:00,66.2,55.4,30.12,WSW,248,0.4,0.7,68,0.00,,,0.00,WUHU216HW,2013-08-08 01:31:00,
2013-08-07 21:36:00,66.2,55.7,30.12,WSW,248,0.4,0.7,69,0.00,,,0.00,WUHU216HW,2013-08-08 01:36:00,
2013-08-07 21:41:00,66.1,56.0,30.12,SE,135,0.8,0.9,70,0.00,,,0.00,WUHU216HW,2013-08-08 01:41:00,
2013-08-07 21:46:00,65.9,55.8,30.12,NW,315,1.1,1.1,70,0.00,,,0.00,WUHU216HW,2013-08-08 01:46:00,
2013-08-07 21:51:00,65.9,55.8,30.12,WNW,293,0.4,1.1,70,0.00,,,0.00,WUHU216HW,2013-08-08 01:51:00,
2013-08-07 21:56:00,65.9,55.8,30.12,WSW,248,0.7,1.1,70,0.00,,,0.00,WUHU216HW,2013-08-08 01:56:00,
2013-08-07 22:01:00,65.9,56.3,30.12,SW,225,0.6,0.7,71,0.00,,,0.00,WUHU216HW,2013-08-08 02:01:00,
2013-08-07 22:06:00,65.9,56.3,30.12,SSW,203,1.6,1.6,71,0.00,,,0.00,WUHU216HW,2013-08-08 02:06:00,
2013-08-07 22:11:00,65.9,56.3,30.12,SSE,158,1.3,1.8,71,0.00,,,0.00,WUHU216HW,2013-08-08 02:11:00,
2013-08-07 22:16:00,65.9,56.3,30.12,WNW,293,2.2,2.2,71,0.00,,,0.00,WUHU216HW,2013-08-08 02:16:00,
2013-08-07 22:21:00,65.9,56.3,30.12,SSW,203,0.9,2.2,71,0.00,,,0.00,WUHU216HW,2013-08-08 02:21:00,
2013-08-07 22:26:00,65.7,56.4,30.12,South,190,1.2,2.2,72,0.00,,,0.00,WUHU216HW,2013-08-08 02:26:00,
2013-08-07 22:31:00,65.7,56.4,30.12,SW,231,2.0,2.2,72,0.00,,,0.00,WUHU216HW,2013-08-08 02:31:00,
2013-08-07 22:36:00,65.7,56.8,30.12,South,180,1.3,2.5,73,0.00,,,0.00,WUHU216HW,2013-08-08 02:36:00,
2013-08-07 22:41:00,65.5,56.6,30.12,SSW,203,0.8,2.5,73,0.00,,,0.00,WUHU216HW,2013-08-08 02:41:00,
2013-08-07 22:46:00,65.5,57.0,30.12,SSW,203,2.2,2.2,74,0.00,,,0.00,WUHU216HW,2013-08-08 02:46:00,
2013-08-07 22:51:00,65.2,56.7,30.12,South,180,1.8,2.2,74,0.00,,,0.00,WUHU216HW,2013-08-08 02:51:00,
2013-08-07 22:56:00,65.2,57.1,30.12,SSW,203,1.6,2.2,75,0.00,,,0.00,WUHU216HW,2013-08-08 02:56:00,
2013-08-07 23:01:00,65.0,56.9,30.11,South,190,1.4,2.2,75,0.00,,,0.00,WUHU216HW,2013-08-08 03:01:00,
2013-08-07 23:06:00,64.8,57.1,30.11,South,180,1.5,2.0,76,0.00,,,0.00,WUHU216HW,2013-08-08 03:06:00,
2013-08-07 23:11:00,64.8,57.1,30.11,South,180,1.3,2.0,76,0.00,,,0.00,WUHU216HW,2013-08-08 03:11:00,
2013-08-07 23:16:00,64.8,57.1,30.11,South,180,1.1,1.3,76,0.00,,,0.00,WUHU216HW,2013-08-08 03:16:00,
2013-08-07 23:21:00,64.6,56.9,30.11,South,180,0.9,1.6,76,0.00,,,0.00,WUHU216HW,2013-08-08 03:21:00,
2013-08-07 23:26:00,64.6,56.9,30.11,South,180,1.8,1.8,76,0.00,,,0.00,WUHU216HW,2013-08-08 03:26:00,
2013-08-07 23:31:00,64.6,56.9,30.11,South,180,0.0,1.8,76,0.00,,,0.00,WUHU216HW,2013-08-08 03:31:00,
2013-08-07 23:32:00,64.6,56.9,30.11,South,180,0.0,1.8,76,0.00,,,0.00,WUHU216HW,2013-08-08 03:32:00,
2013-08-07 23:37:00,64.4,56.7,30.11,South,180,0.0,1.6,76,0.00,,,0.00,WUHU216HW,2013-08-08 03:37:00,
2013-08-07 23:42:00,64.4,57.1,30.11,SSE,158,0.0,1.3,77,0.00,,,0.00,WUHU216HW,2013-08-08 03:42:00,
2013-08-07 23:47:00,64.4,57.1,30.11,SSW,203,0.2,1.3,77,0.00,,,0.00,WUHU216HW,2013-08-08 03:47:00,
2013-08-07 23:52:00,64.3,56.9,30.11,South,180,1.3,1.3,77,0.00,,,0.00,WUHU216HW,2013-08-08 03:52:00,
2013-08-07 23:57:00,64.3,56.9,30.11,SSE,158,1.8,2.0,77,0.00,,,0.00,WUHU216HW,2013-08-08 03:57:00,